This is the latest recevied weather packets stored in our database for station/object KB3KAV. If no packets are shown the sender has not sent any weather packets the latest 10 day(s).
| Time | Temp. | Humidity | Pressure | Rain* | Wind** | Luminosity | Snow |
|---|---|---|---|---|---|---|---|
| 1778025743 | 19.44° C | 64% | 1036.3 hPa | 0 mm | - | 0 W/m² | - |
| 1778025144 | 20° C | 61% | 1036.1 hPa | 0 mm | - | 3 W/m² | - |
| 1778024544 | 20.56° C | 58% | 1036.1 hPa | 0 mm | - | 6 W/m² | - |
| 1778023938 | 20.56° C | 58% | 1035.8 hPa | 0 mm | - | 0 W/m² | - |
| 1778023338 | 21.11° C | 55% | 1035.8 hPa | 0 mm | - | 5 W/m² | - |
| 1778022734 | 21.67° C | 49% | 1035.9 hPa | 0 mm | - | 7 W/m² | - |
| 1778022134 | 22.78° C | 45% | 1035.9 hPa | 0 mm | - | 16 W/m² | - |
| 1778021533 | 23.89° C | 43% | 1035.6 hPa | 0 mm | - | 12 W/m² | - |
| 1778020932 | 23.89° C | 40% | 1035.6 hPa | 0 mm | - | 4 W/m² | - |
| 1778020331 | 24.44° C | 39% | 1035.7 hPa | 0 mm | - | 4 W/m² | - |
| 1778019729 | 24.44° C | 41% | 1035.4 hPa | 0 mm | - | 8 W/m² | - |
| 1778019129 | 24.44° C | 39% | 1035.4 hPa | 0 mm | - | 6 W/m² | - |
| 1778018530 | 24.44° C | 39% | 1035.3 hPa | 0 mm | - | 17 W/m² | - |
| 1778017925 | 24.44° C | 40% | 1035.1 hPa | 0 mm | - | 28 W/m² | - |
| 1778017326 | 24.44° C | 38% | 1035.3 hPa | 0 mm | - | 53 W/m² | - |
| 1778016720 | 24.44° C | 40% | 1035.4 hPa | 0 mm | - | 75 W/m² | - |
| 1778016119 | 24.44° C | 40% | 1035.2 hPa | 0 mm | - | 27 W/m² | - |
| 1778015519 | 24.44° C | 37% | 1035.3 hPa | 0 mm | - | 28 W/m² | - |
| 1778014919 | 25° C | 36% | 1035.4 hPa | 0 mm | - | 31 W/m² | - |
| 1778014314 | 25.56° C | 35% | 1035.1 hPa | 0 mm | - | 21 W/m² | - |
| 1778013715 | 25.56° C | 35% | 1035.1 hPa | 0 mm | - | 62 W/m² | - |
| 1778013114 | 25.56° C | 36% | 1035 hPa | 0 mm | - | 79 W/m² | - |
| 1778012512 | 25.56° C | 35% | 1035 hPa | 0 mm | - | 62 W/m² | - |
| 1778011913 | 25.56° C | 34% | 1035.3 hPa | 0 mm | - | 83 W/m² | - |
| 1778011313 | 25.56° C | 34% | 1034.9 hPa | 0 mm | - | 77 W/m² | - |
* Rain latest hour (hover to see other rain measurements)
** Current wind speed in m/s (hover to see current wind gust speed)